Hauptseite
METAR-TAF:

METAR-TAF

Flughäfen :

Arnheim, Niederlande

Militärflugplatz Deelen

Breite: 52-04N, Länge: 005-53E, Höhe: 48 m

Beobachtung

Neuester Wetterbericht von vor 27 Minuten, um 11:25 UTC
Wind 15 kt aus Süd/Südost, variierte zwischen Nordost und Südwest
Temperatur 29°C
Luftfeuchtigkeit 33%
Luftdruck 1016 hPa
Sichtweite 10 km oder mehr

METAR: EHDL 271125Z AUTO 15015KT 050V220 9999 NCD 29/11 Q1016 BLU

Zeit: 13:52 (11:52 UTC)


TAF: fehlend

Wetterbeobachtungen und Prognosen von mehr als 4000 Flughäfen (METAR und TAF Bericht).

Die verfügbaren Stationen werden durch gelbe und rote Markierungen auf der Karte dargestellt.

Führen Sie die Maus auf sie, um den Namen der Station zu sehen.

Darauf klicken, um die Beobachtung von Wetterbeobachtungen und Prognosen zu sehen.

Um die Karte zu ändern : klicken Sie auf den grünen Tasten mit einem schwarzen Kreuz Zum Vergrößern, auf den grünen Button mit einem Gedankenstrich zu verkleinern, oder auf die grünen Pfeile für benachbarte Karten.


METAR-TAF: